International Virtual Aviation Organisation

Russian Federation and Kazakhstan MCD

 

Карточка аэропорта URMM

Внимание!
Информация на этой странице в стадии наполнения.
Если вы не увидели какой-то информации, или заметили неточность - пожалуйста сообщите нам!
Спасибо!
Команда RU-STAFF
Название аэропортаМинеральные Воды
Название аэропорта (англ.)Mineralnyye Vody
Превышение1047 ft. (319.1 m.)
Координаты44°13.608', 43°4.9799999999999'
Высота перехода900m
Эшелон переходаQFE>=704mm:FL060; QFE<704mm:FL070
Коды ответчика1050-1057
Зона ОрВДРостов-на-Дону РПИ (URRV)
Данные METARURMM 260600Z 12010MPS 9999 NSC 08/M05 Q1016 R12/090070 NOSIG RMK QFE734/0978
Проноз погоды (TAF)URMM 260524Z 2606/2706 09006G11MPS 9999 NSC TX12/2612Z TNM02/2703Z TEMPO 2606/2615 11010G15MPS
NOTAMshow/hide NOTAM
AWOS   TABLE

Информация о ВПП

ВПП Длина ВПП (м.) Покрытие Курс ВПП Частота ILS
123900Бетон115111.7
303900Бетон295109.3

Диспетчерские позиции

Позывной Наименование органа УВД Частота
URMM_APPМинеральные Воды-Подход119.3
URMM_R_APPМинеральные Воды-Круг120.7
URMM_TWRМинеральные Воды-Старт128.0
URMM_GNDМинеральные Воды-Руление121.9



Спутниковое изображение